Frying Pan Shoals, NC Buoy (41013)

Conditions for Saturday

Daily
Weekly
Monthly
Marine Data Graph

Marine & Boating Location Search

Enter a coastal zip code for marine weather.

General Information

Location: 33.436 North -77.743 West
Buoy Type: 3-meter discus buoy
Buoy Hull: 3D55
Payload: AMPS payload
Owned by: NDBC
Windspeed: Measured by obtained from anemometer
Sea Surface: Measured by Intake
Note:
 

Weather and Wave Data

Time Temp Humidity Wind Dominant Wave Wind Wave Wave Swell Pressure
  Air
(°F)
Water
(°F)
  Dir Speed
(kts)
Speed
(mph)
Period
(sec)
Height
(ft)
Range
(ft)
Period
(sec)
Height
(ft)
Range
(ft)
Period
(sec)
Height
(ft)
Range
(ft)
Atmo.
(in)
Tend.
(in)
20:50 50 64 50 NE 17.5 20.1 11 6.23 exactly 6.2 6 4.92 4.10 - 5.74 11 3.28 2.46 - 4.10 30.49 +0.03
21:50 50 65 52 NE 17.5 20.1 11 5.91 exactly 5.9 6 4.92 4.10 - 5.74 11 3.28 2.46 - 4.10 30.48 -
22:50 50 66 55 NNE 15.6 17.9 6 5.91 exactly 5.9 6 4.92 4.10 - 5.74 11 3.28 2.46 - 4.10 30.46 -0.02
23:50 51 66 56 NE 17.5 20.1 6 5.58 exactly 5.6 6 4.92 4.10 - 5.74 9 3.28 2.46 - 4.10 30.45 -0.04
00:50 51 68 62 NNE 17.5 20.1 6 5.58 exactly 5.6 6 4.92 4.10 - 5.74 8 3.28 2.46 - 4.10 30.42 -0.06
01:50 51 67 60 NNE 17.5 20.1 7 5.25 exactly 5.2 7 4.92 4.10 - 5.74 11 1.64 0.82 - 2.46 30.43 -0.03
02:50 50 67 63 NNE 19.4 22.4 6 5.25 exactly 5.2 6 4.92 4.10 - 5.74 11 1.64 0.82 - 2.46 30.42 -0.03
03:50 50 67 62 NNE 19.4 22.4 5 5.25 exactly 5.2 5 4.92 4.10 - 5.74 8 1.64 0.82 - 2.46 30.41 -0.01
04:50 49 66 69 NNE 21.4 24.6 7 4.92 exactly 4.9 7 4.92 4.10 - 5.74 10 3.28 2.46 - 4.10 30.41 -0.02
05:50 49 65 61 NNE 21.4 24.6 5 4.59 exactly 4.6 5 4.92 4.10 - 5.74 11 1.64 0.82 - 2.46 30.40 -0.01
06:50 49 64 61 NNE 17.5 20.1 6 4.92 exactly 4.9 6 4.92 4.10 - 5.74 10 1.64 0.82 - 2.46 30.42 +0.01
07:50 49 62 62 NNE 19.4 22.4 5 4.59 exactly 4.6 5 4.92 4.10 - 5.74 10 1.64 0.82 - 2.46 30.42 +0.01
08:50 50 59 59 NNE 19.4 22.4 6 4.92 exactly 4.9 6 4.92 4.10 - 5.74 11 1.64 0.82 - 2.46 30.44 +0.03
09:50 50 58 60 North 17.5 20.1 6 4.92 exactly 4.9 6 4.92 4.10 - 5.74 9 1.64 0.82 - 2.46 30.45 +0.02
10:50 50 60 66 North 15.6 17.9 6 4.59 exactly 4.6 6 4.92 4.10 - 5.74 9 1.64 0.82 - 2.46 30.44 +0.02
11:50 51 57 65 North 15.6 17.9 5 4.59 exactly 4.6 5 4.92 4.10 - 5.74 9 1.64 0.82 - 2.46 30.40 -0.04
13:50 52 56 68 NNE 13.6 15.7 6 4.27 exactly 4.3 6 3.28 2.46 - 4.10 8 1.64 0.82 - 2.46 30.32 -0.12
14:50 53 56 70 NNE 11.7 13.4 6 4.27 exactly 4.3 6 3.28 2.46 - 4.10 7 3.28 2.46 - 4.10 30.30 -0.10
15:50 54 55 70 NNE 11.7 13.4 9 4.27 exactly 4.3 5 3.28 2.46 - 4.10 9 3.28 2.46 - 4.10 30.29 -0.06
16:50 54 55 73 NNE 9.7 11.2 10 3.94 exactly 3.9 5 1.64 0.82 - 2.46 10 3.28 2.46 - 4.10 30.27 -0.05
17:50 54
-
79 North 7.8 8.9 9 3.61 exactly 3.6 4 1.64 0.82 - 2.46 9 3.28 2.46 - 4.10 30.26 -0.04
18:50 55 64 81 North 7.8 8.9 9 3.61 exactly 3.6 3 1.64 0.82 - 2.46 9 3.28 2.46 - 4.10 30.27 -0.02
19:50 55 63 81 North 5.8 6.7 8 3.61 exactly 3.6 3 1.64 0.82 - 2.46 8 3.28 2.46 - 4.10 30.27 -0.01
20:50 55 55 82 North 3.9 4.5 9 3.28 exactly 3.3 4 1.64 0.82 - 2.46 9 3.28 2.46 - 4.10 30.26 -
21:50 55 55 83 North 5.8 6.7 8 2.95 exactly 3.0 4 1.64 0.82 - 2.46 8 3.28 2.46 - 4.10 30.24 -0.03
22:50 55 63 87 NNW 3.9 4.5 9 2.95 exactly 3.0 3 1.64 0.82 - 2.46 9 3.28 2.46 - 4.10 30.22 -0.04
23:50 57 64 81 North 1.9 2.2 9 2.95 exactly 3.0 4 1.64 0.82 - 2.46 9 3.28 2.46 - 4.10 30.21 -0.06
00:50 59 65 81 NNW 5.8 6.7 10 2.95 exactly 3.0 4 1.64 0.82 - 2.46 10 3.28 2.46 - 4.10 30.19 -0.05
01:50 59 66 77 NNW 3.9 4.5 7 2.95 exactly 3.0 3 1.64 0.82 - 2.46 7 3.28 2.46 - 4.10 30.17 -0.05
02:50 58 67 80 WNW 9.7 11.2 8 2.95 exactly 3.0 4 1.64 0.82 - 2.46 8 3.28 2.46 - 4.10 30.16 -0.05
03:50 58 67 83 NW 11.7 13.4 8 2.95 exactly 3.0 5 1.64 0.82 - 2.46 8 3.28 2.46 - 4.10 30.15 -0.04

Detailed Wave Spectra

Time Water Depth Wave Height Spectral Peak Period Average Wave Period Sampling Interval Wave Record
20:00 79 ft 5.94 ft 6.3 sec 5.2 sec 0.6 sec 2400 sec
22:00 79 ft 5.81 ft 10.8 sec 5.2 sec 0.6 sec 2400 sec
23:00 79 ft 5.81 ft 6.3 sec 5.3 sec 0.6 sec 2400 sec
00:00 79 ft 5.71 ft 5.9 sec 5.3 sec 0.6 sec 2400 sec
02:00 79 ft 5.38 ft 6.7 sec 5.1 sec 0.6 sec 2400 sec
04:00 79 ft 5.12 ft 5.3 sec 4.8 sec 0.6 sec 2400 sec
05:00 79 ft 4.95 ft 6.7 sec 4.7 sec 0.6 sec 2400 sec
08:00 79 ft 4.69 ft 5.3 sec 4.5 sec 0.6 sec 2400 sec
09:00 79 ft 4.82 ft 5.6 sec 4.5 sec 0.6 sec 2400 sec
10:00 79 ft 4.92 ft 5.6 sec 4.6 sec 0.6 sec 2400 sec
11:00 79 ft 4.72 ft 5.6 sec 4.6 sec 0.6 sec 2400 sec
12:00 79 ft 4.46 ft 5.3 sec 4.6 sec 0.6 sec 2400 sec
15:00 79 ft 4.17 ft 5.6 sec 5.1 sec 0.6 sec 2400 sec
16:00 79 ft 4.33 ft 9.1 sec 5.1 sec 0.6 sec 2400 sec
17:00 79 ft 3.87 ft 10.0 sec 5.3 sec 0.6 sec 2400 sec
18:00 79 ft 3.74 ft 9.1 sec 5.3 sec 0.6 sec 2400 sec
20:00 79 ft 3.44 ft 8.3 sec 5.3 sec 0.6 sec 2400 sec
21:00 79 ft 3.18 ft 9.1 sec 5.6 sec 0.6 sec 2400 sec
22:00 79 ft 2.89 ft 8.3 sec 5.4 sec 0.6 sec 2400 sec
23:00 79 ft 2.85 ft 9.1 sec 5.4 sec 0.6 sec 2400 sec
00:00 79 ft 3.05 ft 9.1 sec 5.7 sec 0.6 sec 2400 sec
01:00 79 ft 2.82 ft 10.0 sec 5.7 sec 0.6 sec 2400 sec
02:00 79 ft 2.89 ft 6.7 sec 5.8 sec 0.6 sec 2400 sec
03:00 79 ft 2.89 ft 8.3 sec 6.0 sec 0.6 sec 2400 sec